Year,Month,Day,Hour,Minute,Value (Times are PST for temperature in C)
2017,07,08,00,00,19.10
2017,07,08,00,01,19.10
2017,07,08,00,02,19.00
2017,07,08,00,03,19.00
2017,07,08,00,04,19.00
2017,07,08,00,05,19.00
2017,07,08,00,06,18.90
2017,07,08,00,07,18.90
2017,07,08,00,08,18.90
2017,07,08,00,09,18.90
2017,07,08,00,10,18.90
2017,07,08,00,11,18.90
2017,07,08,00,12,18.90
2017,07,08,00,13,18.90
2017,07,08,00,14,18.90
2017,07,08,00,15,18.90
2017,07,08,00,16,18.90
2017,07,08,00,17,18.90
2017,07,08,00,18,18.90
2017,07,08,00,19,18.90
2017,07,08,00,20,18.80
2017,07,08,00,21,18.80
2017,07,08,00,22,18.80
2017,07,08,00,23,18.80
2017,07,08,00,24,18.80
2017,07,08,00,25,18.80
2017,07,08,00,26,18.70
2017,07,08,00,27,18.70
2017,07,08,00,28,18.70
2017,07,08,00,29,18.70
2017,07,08,00,30,18.70
2017,07,08,00,31,18.70
2017,07,08,00,32,18.70
2017,07,08,00,33,18.60
2017,07,08,00,34,18.60
2017,07,08,00,35,18.60
2017,07,08,00,36,18.60
2017,07,08,00,37,18.60
2017,07,08,00,38,18.60
2017,07,08,00,39,18.60
2017,07,08,00,40,18.60
2017,07,08,00,41,18.60
2017,07,08,00,42,18.60
2017,07,08,00,43,18.60
2017,07,08,00,44,18.60
2017,07,08,00,45,18.60
2017,07,08,00,46,18.60
2017,07,08,00,47,18.60
2017,07,08,00,48,18.50
2017,07,08,00,49,18.50
2017,07,08,00,50,18.50
2017,07,08,00,51,18.50
2017,07,08,00,52,18.50
2017,07,08,00,53,18.50
2017,07,08,00,54,18.50
2017,07,08,00,55,18.40
2017,07,08,00,56,18.40
2017,07,08,00,57,18.40
2017,07,08,00,58,18.40
2017,07,08,00,59,18.40
2017,07,08,01,00,18.40
2017,07,08,01,01,18.40
2017,07,08,01,02,18.30
2017,07,08,01,03,18.30
2017,07,08,01,04,18.30
2017,07,08,01,05,18.30
2017,07,08,01,06,18.30
2017,07,08,01,07,18.30
2017,07,08,01,08,18.30
2017,07,08,01,09,18.30
2017,07,08,01,10,18.30
2017,07,08,01,11,18.30
2017,07,08,01,12,18.20
2017,07,08,01,13,18.20
2017,07,08,01,14,18.20
2017,07,08,01,15,18.20
2017,07,08,01,16,18.20
2017,07,08,01,17,18.20
2017,07,08,01,18,18.10
2017,07,08,01,19,18.10
2017,07,08,01,20,18.10
2017,07,08,01,21,18.10
2017,07,08,01,22,18.10
2017,07,08,01,23,18.00
2017,07,08,01,24,18.00
2017,07,08,01,25,18.00
2017,07,08,01,26,17.90
2017,07,08,01,27,17.90
2017,07,08,01,28,17.90
2017,07,08,01,29,17.80
2017,07,08,01,30,17.80
2017,07,08,01,31,17.80
2017,07,08,01,32,17.70
2017,07,08,01,33,17.70
2017,07,08,01,34,17.70
2017,07,08,01,35,17.60
2017,07,08,01,36,17.60
2017,07,08,01,37,17.60
2017,07,08,01,38,17.50
2017,07,08,01,39,17.50
2017,07,08,01,40,17.40
2017,07,08,01,41,17.40
2017,07,08,01,42,17.40
2017,07,08,01,43,17.30
2017,07,08,01,44,17.30
2017,07,08,01,45,17.30
2017,07,08,01,46,17.30
2017,07,08,01,47,17.20
2017,07,08,01,48,17.20
2017,07,08,01,49,17.20
2017,07,08,01,50,17.20
2017,07,08,01,51,17.10
2017,07,08,01,52,17.10
2017,07,08,01,53,17.10
2017,07,08,01,54,17.00
2017,07,08,01,55,17.00
2017,07,08,01,56,17.00
2017,07,08,01,57,16.90
2017,07,08,01,58,16.90
2017,07,08,01,59,16.80
2017,07,08,02,00,16.80
2017,07,08,02,01,16.80
2017,07,08,02,02,16.70
2017,07,08,02,03,16.70
2017,07,08,02,04,16.70
2017,07,08,02,05,16.60
2017,07,08,02,06,16.60
2017,07,08,02,07,16.60
2017,07,08,02,08,16.50
2017,07,08,02,09,16.50
2017,07,08,02,10,16.50
2017,07,08,02,11,16.40
2017,07,08,02,12,16.40
2017,07,08,02,13,16.40
2017,07,08,02,14,16.40
2017,07,08,02,15,16.40
2017,07,08,02,16,16.30
2017,07,08,02,17,16.30
2017,07,08,02,18,16.30
2017,07,08,02,19,16.30
2017,07,08,02,20,16.30
2017,07,08,02,21,16.30
2017,07,08,02,22,16.30
2017,07,08,02,23,16.20
2017,07,08,02,24,16.20
2017,07,08,02,25,16.20
2017,07,08,02,26,16.20
2017,07,08,02,27,16.20
2017,07,08,02,28,16.10
2017,07,08,02,29,16.10
2017,07,08,02,30,16.10
2017,07,08,02,31,16.10
2017,07,08,02,32,16.10
2017,07,08,02,33,16.00
2017,07,08,02,34,16.00
2017,07,08,02,35,16.00
2017,07,08,02,36,16.00
2017,07,08,02,37,15.90
2017,07,08,02,38,15.90
2017,07,08,02,39,15.90
2017,07,08,02,40,15.90
2017,07,08,02,41,15.90
2017,07,08,02,42,15.90
2017,07,08,02,43,15.80
2017,07,08,02,44,15.80
2017,07,08,02,45,15.80
2017,07,08,02,46,15.80
2017,07,08,02,47,15.80
2017,07,08,02,48,15.80
2017,07,08,02,49,15.80
2017,07,08,02,50,15.80
2017,07,08,02,51,15.80
2017,07,08,02,52,15.80
2017,07,08,02,53,15.70
2017,07,08,02,54,15.70
2017,07,08,02,55,15.70
2017,07,08,02,56,15.70
2017,07,08,02,57,15.70
2017,07,08,02,58,15.70
2017,07,08,02,59,15.60
2017,07,08,03,00,15.60
2017,07,08,03,01,15.60
2017,07,08,03,02,15.60
2017,07,08,03,03,15.60
2017,07,08,03,04,15.60
2017,07,08,03,05,15.50
2017,07,08,03,06,15.50
2017,07,08,03,07,15.50
2017,07,08,03,08,15.50
2017,07,08,03,09,15.40
2017,07,08,03,10,15.40
2017,07,08,03,11,15.40
2017,07,08,03,12,15.40
2017,07,08,03,13,15.40
2017,07,08,03,14,15.40
2017,07,08,03,15,15.40
2017,07,08,03,16,15.40
2017,07,08,03,17,15.40
2017,07,08,03,18,15.40
2017,07,08,03,19,15.40
2017,07,08,03,20,15.40
2017,07,08,03,21,15.40
2017,07,08,03,22,15.40
2017,07,08,03,23,15.40
2017,07,08,03,24,15.30
2017,07,08,03,25,15.30
2017,07,08,03,26,15.30
2017,07,08,03,27,15.30
2017,07,08,03,28,15.20
2017,07,08,03,29,15.20
2017,07,08,03,30,15.20
2017,07,08,03,31,15.20
2017,07,08,03,32,15.20
2017,07,08,03,33,15.10
2017,07,08,03,34,15.10
2017,07,08,03,35,15.10
2017,07,08,03,36,15.10
2017,07,08,03,37,15.10
2017,07,08,03,38,15.00
2017,07,08,03,39,15.00
2017,07,08,03,40,14.90
2017,07,08,03,41,14.90
2017,07,08,03,42,14.90
2017,07,08,03,43,14.90
2017,07,08,03,44,14.90
2017,07,08,03,45,14.80
2017,07,08,03,46,14.80
2017,07,08,03,47,14.80
2017,07,08,03,48,14.80
2017,07,08,03,49,14.80
2017,07,08,03,50,14.80
2017,07,08,03,51,14.70
2017,07,08,03,52,14.70
2017,07,08,03,53,14.70
2017,07,08,03,54,14.70
2017,07,08,03,55,14.70
2017,07,08,03,56,14.70
2017,07,08,03,57,14.70
2017,07,08,03,58,14.70
2017,07,08,03,59,14.70
2017,07,08,04,00,14.70
2017,07,08,04,01,14.70
2017,07,08,04,02,14.60
2017,07,08,04,03,14.60
2017,07,08,04,04,14.60
2017,07,08,04,05,14.60
2017,07,08,04,06,14.60
2017,07,08,04,07,14.60
2017,07,08,04,08,14.50
2017,07,08,04,09,14.50
2017,07,08,04,10,14.50
2017,07,08,04,11,14.50
2017,07,08,04,12,14.50
2017,07,08,04,13,14.50
2017,07,08,04,14,14.50
2017,07,08,04,15,14.60
2017,07,08,04,16,14.60
2017,07,08,04,17,14.60
2017,07,08,04,18,14.60
2017,07,08,04,19,14.60
2017,07,08,04,20,14.60
2017,07,08,04,21,14.60
2017,07,08,04,22,14.60
2017,07,08,04,23,14.60
2017,07,08,04,24,14.60
2017,07,08,04,25,14.60
2017,07,08,04,26,14.60
2017,07,08,04,27,14.60
2017,07,08,04,28,14.60
2017,07,08,04,29,14.60
2017,07,08,04,30,14.60
2017,07,08,04,31,14.60
2017,07,08,04,32,14.60
2017,07,08,04,33,14.60
2017,07,08,04,34,14.60
2017,07,08,04,35,14.60
2017,07,08,04,36,14.60
2017,07,08,04,37,14.60
2017,07,08,04,38,14.60
2017,07,08,04,39,14.60
2017,07,08,04,40,14.60
2017,07,08,04,41,14.60
2017,07,08,04,42,14.60
2017,07,08,04,43,14.60
2017,07,08,04,44,14.60
2017,07,08,04,45,14.60
2017,07,08,04,46,14.60
2017,07,08,04,47,14.60
2017,07,08,04,48,14.60
2017,07,08,04,49,14.60
2017,07,08,04,50,14.60
2017,07,08,04,51,14.60
2017,07,08,04,52,14.70
2017,07,08,04,53,14.70
2017,07,08,04,54,14.70
2017,07,08,04,55,14.70
2017,07,08,04,56,14.70
2017,07,08,04,57,14.70
2017,07,08,04,58,14.70
2017,07,08,04,59,14.70
2017,07,08,05,00,14.70
2017,07,08,05,01,14.80
2017,07,08,05,02,14.80
2017,07,08,05,03,14.80
2017,07,08,05,04,14.90
2017,07,08,05,05,14.90
2017,07,08,05,06,14.90
2017,07,08,05,07,14.90
2017,07,08,05,08,15.00
2017,07,08,05,09,15.00
2017,07,08,05,10,15.00
2017,07,08,05,11,15.00
2017,07,08,05,12,15.00
2017,07,08,05,13,15.00
2017,07,08,05,14,15.00
2017,07,08,05,15,15.00
2017,07,08,05,16,15.00
2017,07,08,05,17,15.00
2017,07,08,05,18,15.00
2017,07,08,05,19,15.00
2017,07,08,05,20,15.00
2017,07,08,05,21,15.00
2017,07,08,05,22,15.00
2017,07,08,05,23,15.00
2017,07,08,05,24,15.00
2017,07,08,05,25,15.00
2017,07,08,05,26,15.00
2017,07,08,05,27,15.00
2017,07,08,05,28,15.00
2017,07,08,05,29,15.00
2017,07,08,05,30,15.00
2017,07,08,05,31,15.00
2017,07,08,05,32,15.00
2017,07,08,05,33,15.00
2017,07,08,05,34,15.00
2017,07,08,05,35,15.00
2017,07,08,05,36,15.00
2017,07,08,05,37,15.00
2017,07,08,05,38,15.00
2017,07,08,05,39,15.00
2017,07,08,05,40,15.00
2017,07,08,05,41,14.90
2017,07,08,05,42,14.90
2017,07,08,05,43,14.90
2017,07,08,05,44,14.90
2017,07,08,05,45,14.90
2017,07,08,05,46,14.90
2017,07,08,05,47,14.80
2017,07,08,05,48,14.80
2017,07,08,05,49,14.80
2017,07,08,05,50,14.70
2017,07,08,05,51,14.70
2017,07,08,05,52,14.60
2017,07,08,05,53,14.50
2017,07,08,05,54,14.40
2017,07,08,05,55,14.30
2017,07,08,05,56,14.20
2017,07,08,05,57,14.10
2017,07,08,05,58,14.00
2017,07,08,05,59,13.90
2017,07,08,06,00,13.80
2017,07,08,06,01,13.70
2017,07,08,06,02,13.70
2017,07,08,06,03,13.60
2017,07,08,06,04,13.60
2017,07,08,06,05,13.60
2017,07,08,06,06,13.50
2017,07,08,06,07,13.50
2017,07,08,06,08,13.50
2017,07,08,06,09,13.40
2017,07,08,06,10,13.40
2017,07,08,06,11,13.40
2017,07,08,06,12,13.40
2017,07,08,06,13,13.40
2017,07,08,06,14,13.30
2017,07,08,06,15,13.30
2017,07,08,06,16,13.30
2017,07,08,06,17,13.30
2017,07,08,06,18,13.30
2017,07,08,06,19,13.40
2017,07,08,06,20,13.40
2017,07,08,06,21,13.40
2017,07,08,06,22,13.50
2017,07,08,06,23,13.50
2017,07,08,06,24,13.60
2017,07,08,06,25,13.60
2017,07,08,06,26,13.60
2017,07,08,06,27,13.70
2017,07,08,06,28,13.70
2017,07,08,06,29,13.70
2017,07,08,06,30,13.80
2017,07,08,06,31,13.80
2017,07,08,06,32,13.90
2017,07,08,06,33,14.00
2017,07,08,06,34,14.00
2017,07,08,06,35,14.10
2017,07,08,06,36,14.10
2017,07,08,06,37,14.20
2017,07,08,06,38,14.30
2017,07,08,06,39,14.30
2017,07,08,06,40,14.30
2017,07,08,06,41,14.40
2017,07,08,06,42,14.40
2017,07,08,06,43,14.40
2017,07,08,06,44,14.50
2017,07,08,06,45,14.50
2017,07,08,06,46,14.60
2017,07,08,06,47,14.60
2017,07,08,06,48,14.60
2017,07,08,06,49,14.70
2017,07,08,06,50,14.70
2017,07,08,06,51,14.80
2017,07,08,06,52,14.80
2017,07,08,06,53,14.80
2017,07,08,06,54,14.90
2017,07,08,06,55,15.00
2017,07,08,06,56,15.10
2017,07,08,06,57,15.20
2017,07,08,06,58,15.20
2017,07,08,06,59,15.30
2017,07,08,07,00,15.30
2017,07,08,07,01,15.40
2017,07,08,07,02,15.50
2017,07,08,07,03,15.60
2017,07,08,07,04,15.60
2017,07,08,07,05,15.70
2017,07,08,07,06,15.80
2017,07,08,07,07,15.90
2017,07,08,07,08,16.10
2017,07,08,07,09,16.20
2017,07,08,07,10,16.20
2017,07,08,07,11,16.20
2017,07,08,07,12,16.30
2017,07,08,07,13,16.30
2017,07,08,07,14,16.30
2017,07,08,07,15,16.40
2017,07,08,07,16,16.50
2017,07,08,07,17,16.60
2017,07,08,07,18,16.70
2017,07,08,07,19,16.80
2017,07,08,07,20,16.90
2017,07,08,07,21,16.90
2017,07,08,07,22,16.90
2017,07,08,07,23,16.80
2017,07,08,07,24,16.80
2017,07,08,07,25,16.80
2017,07,08,07,26,16.70
2017,07,08,07,27,16.70
2017,07,08,07,28,16.60
2017,07,08,07,29,16.60
2017,07,08,07,30,16.60
2017,07,08,07,31,16.60
2017,07,08,07,32,16.60
2017,07,08,07,33,16.70
2017,07,08,07,34,16.70
2017,07,08,07,35,16.80
2017,07,08,07,36,16.90
2017,07,08,07,37,16.90
2017,07,08,07,38,17.00
2017,07,08,07,39,17.10
2017,07,08,07,40,17.20
2017,07,08,07,41,17.20
2017,07,08,07,42,17.30
2017,07,08,07,43,17.30
2017,07,08,07,44,17.30
2017,07,08,07,45,17.30
2017,07,08,07,46,17.30
2017,07,08,07,47,17.30
2017,07,08,07,48,17.40
2017,07,08,07,49,17.40
2017,07,08,07,50,17.50
2017,07,08,07,51,17.50
2017,07,08,07,52,17.50
2017,07,08,07,53,17.50
2017,07,08,07,54,17.50
2017,07,08,07,55,17.50
2017,07,08,07,56,17.40
2017,07,08,07,57,17.40
2017,07,08,07,58,17.40
2017,07,08,07,59,17.40
2017,07,08,08,00,17.40
2017,07,08,08,01,17.40
2017,07,08,08,02,17.40
2017,07,08,08,03,17.40
2017,07,08,08,04,17.50
2017,07,08,08,05,17.50
2017,07,08,08,06,17.60
2017,07,08,08,07,17.60
2017,07,08,08,08,17.60
2017,07,08,08,09,17.50
2017,07,08,08,10,17.60
2017,07,08,08,11,17.60
2017,07,08,08,12,17.60
2017,07,08,08,13,17.60
2017,07,08,08,14,17.60
2017,07,08,08,15,17.60
2017,07,08,08,16,17.70
2017,07,08,08,17,17.70
2017,07,08,08,18,17.70
2017,07,08,08,19,17.80
2017,07,08,08,20,17.90
2017,07,08,08,21,18.00
2017,07,08,08,22,18.10
2017,07,08,08,23,18.10
2017,07,08,08,24,18.10
2017,07,08,08,25,18.20
2017,07,08,08,26,18.20
2017,07,08,08,27,18.10
2017,07,08,08,28,18.10
2017,07,08,08,29,18.10
2017,07,08,08,30,18.10
2017,07,08,08,31,18.00
2017,07,08,08,32,18.00
2017,07,08,08,33,18.00
2017,07,08,08,34,18.00
2017,07,08,08,35,18.00
2017,07,08,08,36,18.10
2017,07,08,08,37,18.10
2017,07,08,08,38,18.10
2017,07,08,08,39,18.20
2017,07,08,08,40,18.20
2017,07,08,08,41,18.20
2017,07,08,08,42,18.30
2017,07,08,08,43,18.30
2017,07,08,08,44,18.30
2017,07,08,08,45,18.40
2017,07,08,08,46,18.50
2017,07,08,08,47,18.60
2017,07,08,08,48,18.60
2017,07,08,08,49,18.70
2017,07,08,08,50,18.70
2017,07,08,08,51,18.70
2017,07,08,08,52,18.70
2017,07,08,08,53,18.70
2017,07,08,08,54,18.70
2017,07,08,08,55,18.70
2017,07,08,08,56,18.70
2017,07,08,08,57,18.80
2017,07,08,08,58,18.80
2017,07,08,08,59,18.80
2017,07,08,09,00,18.80
2017,07,08,09,01,18.90
2017,07,08,09,02,18.90
2017,07,08,09,03,18.90
2017,07,08,09,04,18.90
2017,07,08,09,05,19.00
2017,07,08,09,06,19.00
2017,07,08,09,07,19.10
2017,07,08,09,08,19.20
2017,07,08,09,09,19.20
2017,07,08,09,10,19.30
2017,07,08,09,11,19.30
2017,07,08,09,12,19.40
2017,07,08,09,13,19.50
2017,07,08,09,14,19.50
2017,07,08,09,15,19.60
2017,07,08,09,16,19.70
2017,07,08,09,17,19.70
2017,07,08,09,18,19.70
2017,07,08,09,19,19.70
2017,07,08,09,20,19.70
2017,07,08,09,21,19.70
2017,07,08,09,22,19.70
2017,07,08,09,23,19.80
2017,07,08,09,24,19.90
2017,07,08,09,25,20.00
2017,07,08,09,26,20.00
2017,07,08,09,27,20.10
2017,07,08,09,28,20.10
2017,07,08,09,29,20.10
2017,07,08,09,30,20.10
2017,07,08,09,31,20.10
2017,07,08,09,32,20.10
2017,07,08,09,33,20.20
2017,07,08,09,34,20.20
2017,07,08,09,35,20.20
2017,07,08,09,36,20.30
2017,07,08,09,37,20.40
2017,07,08,09,38,20.50
2017,07,08,09,39,20.60
2017,07,08,09,40,20.60
2017,07,08,09,41,20.60
2017,07,08,09,42,20.50
2017,07,08,09,43,20.50
2017,07,08,09,44,20.40
2017,07,08,09,45,20.40
2017,07,08,09,46,20.40
2017,07,08,09,47,20.50
2017,07,08,09,48,20.60
2017,07,08,09,49,20.70
2017,07,08,09,50,20.80
2017,07,08,09,51,20.90
2017,07,08,09,52,21.00
2017,07,08,09,53,21.10
2017,07,08,09,54,21.20
2017,07,08,09,55,21.20
2017,07,08,09,56,21.30
2017,07,08,09,57,21.20
2017,07,08,09,58,21.10
2017,07,08,09,59,21.10
2017,07,08,10,00,21.00
2017,07,08,10,01,21.10
2017,07,08,10,02,21.10
2017,07,08,10,03,21.10
2017,07,08,10,04,21.10
2017,07,08,10,05,21.20
2017,07,08,10,06,21.20
2017,07,08,10,07,21.30
2017,07,08,10,08,21.40
2017,07,08,10,09,21.40
2017,07,08,10,10,21.30
2017,07,08,10,11,21.30
2017,07,08,10,12,21.20
2017,07,08,10,13,21.20
2017,07,08,10,14,21.10
2017,07,08,10,15,21.20
2017,07,08,10,16,21.20
2017,07,08,10,17,21.20
2017,07,08,10,18,21.20
2017,07,08,10,19,21.20
2017,07,08,10,20,21.00
2017,07,08,10,21,20.90
2017,07,08,10,22,20.90
2017,07,08,10,23,20.80
2017,07,08,10,24,20.70
2017,07,08,10,25,20.60
2017,07,08,10,26,20.60
2017,07,08,10,27,20.50
2017,07,08,10,28,20.50
2017,07,08,10,29,20.50
2017,07,08,10,30,20.50
2017,07,08,10,31,20.50
2017,07,08,10,32,20.50
2017,07,08,10,33,20.50
2017,07,08,10,34,20.60
2017,07,08,10,35,20.60
2017,07,08,10,36,20.70
2017,07,08,10,37,20.70
2017,07,08,10,38,20.70
2017,07,08,10,39,20.80
2017,07,08,10,40,20.80
2017,07,08,10,41,20.80
2017,07,08,10,42,20.80
2017,07,08,10,43,20.80
2017,07,08,10,44,20.90
2017,07,08,10,45,20.90
2017,07,08,10,46,20.90
2017,07,08,10,47,20.90
2017,07,08,10,48,20.90
2017,07,08,10,49,21.00
2017,07,08,10,50,21.10
2017,07,08,10,51,21.30
2017,07,08,10,52,21.40
2017,07,08,10,53,21.40
2017,07,08,10,54,21.50
2017,07,08,10,55,21.50
2017,07,08,10,56,21.50
2017,07,08,10,57,21.60
2017,07,08,10,58,21.70
2017,07,08,10,59,21.80
2017,07,08,11,00,21.80
2017,07,08,11,01,21.80
2017,07,08,11,02,21.80
2017,07,08,11,03,21.80
2017,07,08,11,04,21.80
2017,07,08,11,05,21.80
2017,07,08,11,06,21.80
2017,07,08,11,07,21.80
2017,07,08,11,08,21.90
2017,07,08,11,09,21.90
2017,07,08,11,10,21.90
2017,07,08,11,11,21.90
2017,07,08,11,12,21.90
2017,07,08,11,13,21.90
2017,07,08,11,14,21.90
2017,07,08,11,15,21.90
2017,07,08,11,16,22.00
2017,07,08,11,17,22.10
2017,07,08,11,18,22.10
2017,07,08,11,19,22.20
2017,07,08,11,20,22.20
2017,07,08,11,21,22.20
2017,07,08,11,22,22.20
2017,07,08,11,23,22.20
2017,07,08,11,24,22.20
2017,07,08,11,25,22.10
2017,07,08,11,26,22.10
2017,07,08,11,27,22.10
2017,07,08,11,28,22.10
2017,07,08,11,29,22.10
2017,07,08,11,30,22.10
2017,07,08,11,31,22.10
2017,07,08,11,32,21.90
2017,07,08,11,33,21.90
2017,07,08,11,34,21.80
2017,07,08,11,35,21.80
2017,07,08,11,36,21.60
2017,07,08,11,37,21.40
2017,07,08,11,38,21.20
2017,07,08,11,39,21.10
2017,07,08,11,40,20.90
2017,07,08,11,41,20.80
2017,07,08,11,42,20.80
2017,07,08,11,43,20.80
2017,07,08,11,44,20.90
2017,07,08,11,45,20.90
2017,07,08,11,46,20.90
2017,07,08,11,47,21.00
2017,07,08,11,48,21.00
2017,07,08,11,49,21.00
2017,07,08,11,50,21.10
2017,07,08,11,51,21.10
2017,07,08,11,52,21.00
2017,07,08,11,53,21.00
2017,07,08,11,54,21.00
2017,07,08,11,55,21.00
2017,07,08,11,56,21.00
2017,07,08,11,57,21.10
2017,07,08,11,58,21.20
2017,07,08,11,59,21.20
2017,07,08,12,00,21.30
2017,07,08,12,01,21.30
2017,07,08,12,02,21.40
2017,07,08,12,03,21.40
2017,07,08,12,04,21.50
2017,07,08,12,05,21.60
2017,07,08,12,06,21.70
2017,07,08,12,07,21.80
2017,07,08,12,08,21.80
2017,07,08,12,09,21.80
2017,07,08,12,10,21.80
2017,07,08,12,11,21.70
2017,07,08,12,12,21.70
2017,07,08,12,13,21.70
2017,07,08,12,14,21.70
2017,07,08,12,15,21.60
2017,07,08,12,16,21.50
2017,07,08,12,17,21.40
2017,07,08,12,18,21.40
2017,07,08,12,19,21.40
2017,07,08,12,20,21.40
2017,07,08,12,21,21.40
2017,07,08,12,22,21.40
2017,07,08,12,23,21.30
2017,07,08,12,24,21.30
2017,07,08,12,25,21.20
2017,07,08,12,26,21.20
2017,07,08,12,27,21.30
2017,07,08,12,28,21.30
2017,07,08,12,29,21.30
2017,07,08,12,30,21.20
2017,07,08,12,31,21.20
2017,07,08,12,32,21.20
2017,07,08,12,33,21.20
2017,07,08,12,34,21.20
2017,07,08,12,35,21.30
2017,07,08,12,36,21.40
2017,07,08,12,37,21.40
2017,07,08,12,38,21.40
2017,07,08,12,39,21.40
2017,07,08,12,40,21.30
2017,07,08,12,41,21.30
2017,07,08,12,42,21.40
2017,07,08,12,43,21.40
2017,07,08,12,44,21.40
2017,07,08,12,45,21.30
2017,07,08,12,46,21.30
2017,07,08,12,47,21.30
2017,07,08,12,48,21.30
2017,07,08,12,49,21.30
2017,07,08,12,50,21.30
2017,07,08,12,51,21.30
2017,07,08,12,52,21.30
2017,07,08,12,53,21.30
2017,07,08,12,54,21.30
2017,07,08,12,55,21.30
2017,07,08,12,56,21.20
2017,07,08,12,57,21.10
2017,07,08,12,58,21.10
2017,07,08,12,59,21.20
2017,07,08,13,00,21.20
2017,07,08,13,01,21.20
2017,07,08,13,02,21.20
2017,07,08,13,03,21.30
2017,07,08,13,04,21.30
2017,07,08,13,05,21.30
2017,07,08,13,06,21.30
2017,07,08,13,07,21.30
2017,07,08,13,08,21.30
2017,07,08,13,09,21.40
2017,07,08,13,10,21.40
2017,07,08,13,11,21.40
2017,07,08,13,12,21.50
2017,07,08,13,13,21.60
2017,07,08,13,14,21.60
2017,07,08,13,15,21.60
2017,07,08,13,16,21.50
2017,07,08,13,17,21.50
2017,07,08,13,18,21.50
2017,07,08,13,19,21.50
2017,07,08,13,20,21.50
2017,07,08,13,21,21.50
2017,07,08,13,22,21.50
2017,07,08,13,23,21.50
2017,07,08,13,24,21.50
2017,07,08,13,25,21.60
2017,07,08,13,26,21.60
2017,07,08,13,27,21.60
2017,07,08,13,28,21.70
2017,07,08,13,29,21.70
2017,07,08,13,30,21.80
2017,07,08,13,31,21.80
2017,07,08,13,32,21.90
2017,07,08,13,33,21.90
2017,07,08,13,34,22.00
2017,07,08,13,35,22.00
2017,07,08,13,36,22.10
2017,07,08,13,37,22.10
2017,07,08,13,38,22.10
2017,07,08,13,39,22.20
2017,07,08,13,40,22.20
2017,07,08,13,41,22.30
2017,07,08,13,42,22.30
2017,07,08,13,43,22.30
2017,07,08,13,44,22.30
2017,07,08,13,45,22.30
2017,07,08,13,46,22.30
2017,07,08,13,47,22.30
2017,07,08,13,48,22.30
2017,07,08,13,49,22.30
2017,07,08,13,50,22.20
2017,07,08,13,51,22.20
2017,07,08,13,52,22.20
2017,07,08,13,53,22.20
2017,07,08,13,54,22.20
2017,07,08,13,55,22.20
2017,07,08,13,56,22.30
2017,07,08,13,57,22.30
2017,07,08,13,58,22.40
2017,07,08,13,59,22.40
2017,07,08,14,00,22.40
2017,07,08,14,01,22.50
2017,07,08,14,02,22.60
2017,07,08,14,03,22.60
2017,07,08,14,04,22.60
2017,07,08,14,05,22.60
2017,07,08,14,06,22.60
2017,07,08,14,07,22.60
2017,07,08,14,08,22.60
2017,07,08,14,09,22.60
2017,07,08,14,10,22.60
2017,07,08,14,11,22.60
2017,07,08,14,12,22.70
2017,07,08,14,13,22.70
2017,07,08,14,14,22.70
2017,07,08,14,15,22.70
2017,07,08,14,16,22.70
2017,07,08,14,17,22.70
2017,07,08,14,18,22.70
2017,07,08,14,19,22.80
2017,07,08,14,20,23.00
2017,07,08,14,21,23.00
2017,07,08,14,22,23.10
2017,07,08,14,23,23.20
2017,07,08,14,24,23.30
2017,07,08,14,25,23.40
2017,07,08,14,26,23.50
2017,07,08,14,27,23.60
2017,07,08,14,28,23.70
2017,07,08,14,29,23.70
2017,07,08,14,30,23.70
2017,07,08,14,31,23.70
2017,07,08,14,32,23.70
2017,07,08,14,33,23.70
2017,07,08,14,34,23.70
2017,07,08,14,35,23.70
2017,07,08,14,36,23.70
2017,07,08,14,37,23.70
2017,07,08,14,38,23.60
2017,07,08,14,39,23.60
2017,07,08,14,40,23.70
2017,07,08,14,41,23.80
2017,07,08,14,42,23.90
2017,07,08,14,43,24.00
2017,07,08,14,44,24.00
2017,07,08,14,45,24.00
2017,07,08,14,46,24.00
2017,07,08,14,47,23.90
2017,07,08,14,48,23.90
2017,07,08,14,49,23.80
2017,07,08,14,50,23.80
2017,07,08,14,51,23.80
2017,07,08,14,52,23.80
2017,07,08,14,53,23.80
2017,07,08,14,54,23.80
2017,07,08,14,55,23.80
2017,07,08,14,56,23.80
2017,07,08,14,57,23.80
2017,07,08,14,58,23.80
2017,07,08,14,59,23.70
2017,07,08,15,00,23.60
2017,07,08,15,01,23.50
2017,07,08,15,02,23.30
2017,07,08,15,03,23.20
2017,07,08,15,04,23.20
2017,07,08,15,05,23.20
2017,07,08,15,06,23.30
2017,07,08,15,07,23.30
2017,07,08,15,08,23.30
2017,07,08,15,09,23.40
2017,07,08,15,10,23.40
2017,07,08,15,11,23.40
2017,07,08,15,12,23.40
2017,07,08,15,13,23.40
2017,07,08,15,14,23.40
2017,07,08,15,15,23.40
2017,07,08,15,16,23.40
2017,07,08,15,17,23.50
2017,07,08,15,18,23.50
2017,07,08,15,19,23.60
2017,07,08,15,20,23.60
2017,07,08,15,21,23.60
2017,07,08,15,22,23.70
2017,07,08,15,23,23.70
2017,07,08,15,24,23.80
2017,07,08,15,25,23.80
2017,07,08,15,26,23.70
2017,07,08,15,27,23.70
2017,07,08,15,28,23.60
2017,07,08,15,29,23.60
2017,07,08,15,30,23.50
2017,07,08,15,31,23.60
2017,07,08,15,32,23.60
2017,07,08,15,33,23.60
2017,07,08,15,34,23.60
2017,07,08,15,35,23.70
2017,07,08,15,36,23.70
2017,07,08,15,37,23.80
2017,07,08,15,38,23.80
2017,07,08,15,39,23.90
2017,07,08,15,40,23.90
2017,07,08,15,41,23.90
2017,07,08,15,42,23.90
2017,07,08,15,43,23.90
2017,07,08,15,44,23.90
2017,07,08,15,45,23.90
2017,07,08,15,46,23.90
2017,07,08,15,47,24.00
2017,07,08,15,48,24.00
2017,07,08,15,49,24.10
2017,07,08,15,50,24.20
2017,07,08,15,51,24.20
2017,07,08,15,52,24.20
2017,07,08,15,53,24.20
2017,07,08,15,54,24.20
2017,07,08,15,55,24.10
2017,07,08,15,56,24.10
2017,07,08,15,57,24.00
2017,07,08,15,58,24.00
2017,07,08,15,59,24.00
2017,07,08,16,00,24.10
2017,07,08,16,01,24.20
2017,07,08,16,02,24.30
2017,07,08,16,03,24.30
2017,07,08,16,04,24.20
2017,07,08,16,05,24.20
2017,07,08,16,06,24.20
2017,07,08,16,07,24.20
2017,07,08,16,08,24.10
2017,07,08,16,09,24.10
2017,07,08,16,10,24.10
2017,07,08,16,11,24.10
2017,07,08,16,12,24.20
2017,07,08,16,13,24.20
2017,07,08,16,14,24.10
2017,07,08,16,15,24.10
2017,07,08,16,16,24.20
2017,07,08,16,17,24.20
2017,07,08,16,18,24.20
2017,07,08,16,19,24.20
2017,07,08,16,20,24.30
2017,07,08,16,21,24.30
2017,07,08,16,22,24.30
2017,07,08,16,23,24.30
2017,07,08,16,24,24.30
2017,07,08,16,25,24.30
2017,07,08,16,26,24.30
2017,07,08,16,27,24.20
2017,07,08,16,28,24.10
2017,07,08,16,29,24.10
2017,07,08,16,30,24.00
2017,07,08,16,31,24.00
2017,07,08,16,32,23.90
2017,07,08,16,33,23.90
2017,07,08,16,34,23.90
2017,07,08,16,35,23.90
2017,07,08,16,36,23.90
2017,07,08,16,37,23.90
2017,07,08,16,38,23.90
2017,07,08,16,39,23.90
2017,07,08,16,40,23.80
2017,07,08,16,41,23.80
2017,07,08,16,42,23.70
2017,07,08,16,43,23.70
2017,07,08,16,44,23.70
2017,07,08,16,45,23.70
2017,07,08,16,46,23.60
2017,07,08,16,47,23.60
2017,07,08,16,48,23.60
2017,07,08,16,49,23.60
2017,07,08,16,50,23.60
2017,07,08,16,51,23.50
2017,07,08,16,52,23.50
2017,07,08,16,53,23.50
2017,07,08,16,54,23.50
2017,07,08,16,55,23.50
2017,07,08,16,56,23.50
2017,07,08,16,57,23.60
2017,07,08,16,58,23.50
2017,07,08,16,59,23.60
2017,07,08,17,00,23.60
2017,07,08,17,01,23.60
2017,07,08,17,02,23.60
2017,07,08,17,03,23.60
2017,07,08,17,04,23.60
2017,07,08,17,05,23.70
2017,07,08,17,06,23.70
2017,07,08,17,07,23.70
2017,07,08,17,08,23.70
2017,07,08,17,09,23.70
2017,07,08,17,10,23.70
2017,07,08,17,11,23.70
2017,07,08,17,12,23.70
2017,07,08,17,13,23.70
2017,07,08,17,14,23.60
2017,07,08,17,15,23.60
2017,07,08,17,16,23.60
2017,07,08,17,17,23.60
2017,07,08,17,18,23.60
2017,07,08,17,19,23.60